Location: Lezennet
(47.9768°N, 3.5696°W)
Time: 01:59:42
(UTC+00:00)

Daily predictions for brighter satellites

Satellite Brightness Start Highest point End
(mag) Time Altitude Azimuth Time Altitude Azimuth Time Altitude Azimuth
Cosmos 1461 3.0 00:01:17 10° NW 00:05:26 74° NE 00:06:31 48° ESE
Cosmos 1867 3.9 00:05:01 42° SSE 00:06:09 49° ESE 00:11:26 10° NE
Nadezhda 2 Rocket 4.4 00:00:34 10° N 00:06:46 90° ESE 00:09:13 39° S
Cosmos 2221 Rocket 3.9 00:06:47 45° SE 00:07:33 51° E 00:11:51 10° NNE
Cosmos 1674 Rocket 4.4 00:06:56 33° ESE 00:07:40 35° E 00:11:37 10° NNE
Cosmos 1674 2.9 00:10:51 54° ESE 00:10:59 54° E 00:14:40 10° NNE
Cosmos 1238 Rocket 3.1 00:09:32 10° N 00:12:06 41° ENE 00:12:06 41° ENE
ATLAS CENTAUR R/B 2.0 00:08:50 10° NW 00:13:31 48° WSW 00:13:59 46° SW
SL-19 R/B 4.0 00:17:33 65° NNE 00:17:33 65° NNE 00:20:12 10° NNW
Cosmos 2322 Rocket 3.8 00:15:46 10° WSW 00:20:41 30° NW 00:25:38 10° NNE
ATLAS 5 CENTAUR R/B 3.3 00:06:33 10° NW 00:21:53 85° NE 00:24:39 27° SE
CZ-4C R/B 2.9 00:14:58 10° NW 00:22:11 84° SW 00:27:53 23° SSE
Cosmos 2333 Rocket 2.4 00:19:42 31° SW 00:22:26 67° WNW 00:28:06 10° NNE
Cosmos 2322 3.7 00:20:48 38° SSW 00:23:06 87° WNW 00:28:52 10° NNE
Cosmos 1378 Rocket 4.0 00:22:19 42° SE 00:23:11 49° E 00:27:28 10° NNE
Cosmos 1818 4.3 00:18:30 10° NW 00:23:25 35° WSW 00:24:11 34° SW
Cosmos 1844 Rocket 4.0 00:21:03 10° NW 00:25:25 24° WSW 00:26:33 22° WSW
USA 215 3.5 00:21:41 10° NE 00:28:12 71° NNW 00:34:44 10° WSW
NOSS 0 Rocket 4.4 00:29:23 35° SSE 00:31:29 47° ESE 00:37:25 10° NE
PSLV R/B 3.5 00:29:35 10° NNE 00:33:59 90° NW 00:35:00 54° SSW
ALOS 2 4.1 00:38:34 23° WSW 00:39:08 23° W 00:42:41 10° NW
Cosmos 2151 Rocket 3.6 00:35:39 10° NNW 00:40:03 70° W 00:40:53 54° SSW
Cosmos 1745 Rocket 4.0 00:35:28 10° N 00:41:45 82° E 00:44:35 35° SSE
Cosmos 839 Rocket 4.3 00:36:20 10° NW 00:42:40 77° NE 00:49:12 14° SE
Okean 2 3.6 00:42:13 50° WSW 00:42:55 58° WNW 00:46:58 10° N
ADEOS Rocket 3.5 00:42:18 33° SW 00:44:04 42° W 00:49:44 10° NNW
USA 308 3.9 00:44:46 30° ESE 00:44:46 30° ESE 00:47:52 10° ENE
Okean 2 Rocket 3.4 00:39:54 10° NNW 00:44:21 56° W 00:45:13 47° SW
Cosmos 2219 Rocket 2.5 00:42:56 29° SW 00:45:42 58° WNW 00:51:15 10° NNE
Meteor 1-16 Rocket 4.3 00:43:35 10° NNW 00:49:34 85° W 00:52:02 37° S
Cosmos 1707 4.0 00:50:02 28° W 00:50:47 30° WNW 00:54:16 10° N
GP-B 3.9 00:52:16 10° NNE 00:56:32 44° E 00:58:07 31° SE
Lacrosse 5 3.5 00:58:31 19° SE 00:58:59 20° ESE 01:02:36 10° ENE
CZ-2D R/B 3.7 00:55:18 10° NE 00:59:40 25° E 01:02:28 16° SE
Cosmos 1300 3.0 00:56:50 10° N 01:00:35 59° ENE 01:01:27 45° SE
Cosmos 546 4.5 01:01:15 64° SW 01:01:45 78° SSE 01:05:41 10° ENE
SL-14 R/B 3.2 01:02:27 60° SSE 01:03:04 77° E 01:06:57 10° NNE
ASTEX 1 3.9 00:58:45 10° N 01:03:27 47° WNW 01:05:07 34° SW
ERS-2 4.5 01:01:53 10° NNW 01:03:58 15° WNW 01:05:21 12° W
USA 267 3.6 01:02:14 33° S 01:04:30 43° SW 01:10:43 10° WNW
USA 305 2.9 01:07:08 52° SSE 01:07:28 54° SE 01:11:33 10° ENE
Cosmos 371 Rocket 3.2 01:06:03 44° S 01:07:34 80° ESE 01:12:27 10° NNE
Cosmos 2150 Rocket 3.9 01:06:08 41° SSW 01:07:58 83° ESE 01:13:09 10° NNE
NOSS 2-2 (C) 4.2 01:03:00 10° NW 01:08:03 71° SW 01:12:46 21° SSE
USA 229 DEB 3.9 01:02:15 10° NW 01:09:33 68° SW 01:15:06 21° SSE
USA 229 3.9 01:02:21 10° NW 01:09:39 69° SW 01:15:15 20° SSE
Cosmos 1048 Rocket 4.4 01:08:12 10° NW 01:13:05 43° WSW 01:14:18 37° SW
Cosmos 2237 Rocket 2.3 01:11:28 37° S 01:13:46 69° ESE 01:19:27 10° NNE
COSMOS 2428 3.3 01:12:17 25° WSW 01:15:25 50° NW 01:20:58 10° NNE
Cosmos 494 Rocket 4.4 01:10:52 10° NNW 01:15:45 45° WSW 01:17:00 37° SW
Cosmos 405 Rocket 3.3 01:18:03 38° WSW 01:18:41 42° WNW 01:22:19 10° N
Cosmos 304 Rocket 3.9 01:17:17 39° S 01:18:54 64° ESE 01:23:42 10° NNE
Cosmos 1437 Rocket 3.1 01:15:27 10° NNW 01:19:02 43° W 01:19:16 43° WSW
SL-16 R/B 3.4 01:15:06 10° SE 01:20:59 47° ENE 01:26:55 10° N
Lacrosse 5 rocket 3.4 01:21:54 14° ESE 01:21:55 14° ESE 01:23:58 10° E
Cosmos 1125 Rocket 3.5 01:20:00 36° SW 01:22:07 74° WNW 01:27:20 10° NNE
Okean 1 Rocket 3.5 01:18:47 10° NNW 01:23:03 49° W 01:24:05 40° SW
Cosmos 1953 2.8 01:22:03 10° NNW 01:25:51 42° W 01:26:26 39° WSW
Cosmos 2360 Rocket 4.4 01:22:29 10° W 01:26:22 19° NW 01:30:16 10° N
SME Rocket 3.3 01:24:35 32° SSE 01:26:27 76° ENE 01:31:38 10° NNW
Resurs 1-4 Rocket 2.9 01:24:04 10° NNE 01:29:05 43° E 01:31:56 23° SSE
Cosmos 1943 Rocket 2.8 01:26:44 10° NNW 01:32:21 56° ENE 01:37:54 10° SE
USA 290 4.3 01:32:42 18° WNW 01:33:34 19° NW 01:36:01 10° N
MOZ.5/SAFIR/RUBIN 5/SL-8 3.7 01:33:59 35° S 01:35:55 73° WSW 01:40:41 10° NNW
Cosmos 1709 Rocket 4.0 01:30:08 10° NNW 01:36:13 65° W 01:39:18 30° SSW
Cosmos 1626 4.0 01:36:40 17° W 01:37:33 18° WNW 01:40:10 10° NNW
Cosmos 2315 Rocket 4.0 01:35:34 30° SSW 01:38:57 79° W 01:45:23 10° N
Cosmos 2278 Rocket 2.7 01:38:12 10° NW 01:43:27 40° WSW 01:45:23 30° SSW
EO 1 Delta rocket 4.0 01:39:08 10° N 01:43:44 67° WNW 01:46:02 32° SSW
ADEOS II 3.4 01:40:13 10° NNE 01:44:56 32° E 01:48:40 15° SSE
IDEFIX/ARIANE 42P 4.1 01:41:16 10° NE 01:45:47 28° E 01:49:52 12° SSE
USA 306 2.8 01:47:34 32° WSW 01:49:26 86° NNW 01:53:37 10° ENE
Cosmos 2084 Rocket 3.4 01:49:15 40° S 01:50:15 53° SE 01:53:58 10° NE
USA 307 2.8 01:51:04 33° WSW 01:52:54 89° SSE 01:57:07 10° ENE
Thor Agena Rocket 3.7 01:48:07 10° N 01:53:23 69° WNW 01:56:09 29° SSW
ERBS 1.9 01:54:54 57° WSW 01:55:26 84° NW 01:58:31 10° NE
NPP 4.0 01:51:49 10° NNE 01:57:11 62° ESE 02:00:35 23° S
Cosmos 2369 Rocket 3.7 01:52:15 10° NNW 01:57:28 37° NE 02:02:38 10° ESE
SL-16 R/B 2.6 01:58:00 24° S 02:01:17 57° ESE 02:06:51 10° NE
Cosmos 1455 Rocket 3.3 01:57:00 10° NNW 02:01:23 55° W 02:03:15 31° SSW
CZ-4 R/B 3.8 01:57:30 10° NNE 02:02:11 80° ESE 02:04:41 28° S
Cosmos 1980 4.3 02:02:27 22° WSW 02:05:56 50° NW 02:11:27 10° NNE
Meteor 1-28 Rocket 4.1 02:03:36 12° SE 02:06:54 46° ENE 02:10:29 10° N
Cosmos 2333 Rocket 4.5 02:04:15 10° WNW 02:07:50 17° NW 02:11:27 10° N
COSMOS 2455 3.8 02:04:48 18° S 02:08:46 38° ESE 02:14:17 10° NE
Cosmos 332 Rocket 4.1 02:07:03 26° SW 02:09:31 55° WNW 02:14:15 10° NNE
CZ-4C R/B 4.1 02:04:28 10° WNW 02:10:16 24° WSW 02:12:59 20° SW
USA 215 4.4 02:04:39 10° ENE 02:10:44 43° N 02:16:49 10° WNW
Cosmos 1536 Rocket 4.3 02:08:03 18° SSE 02:11:05 48° E 02:15:19 10° NNE
Cosmos 1975 Rocket 3.7 02:16:47 25° SW 02:18:52 43° WNW 02:23:08 10° N
Nadezhda 1 Rocket 4.4 02:15:05 14° S 02:20:32 64° E 02:26:45 10° NNE
Meteor 1-24 Rocket 3.7 02:17:04 23° SSW 02:20:37 73° WNW 02:26:05 10° N
UNK 3.7 02:19:10 18° S 02:22:32 75° WSW 02:27:10 10° NNW
USA 308 3.2 02:20:30 18° WSW 02:23:34 64° NNW 02:27:44 10° ENE
Cosmos 1455 2.0 02:21:30 10° NNW 02:25:12 72° W 02:27:22 23° S
Cosmos 1025 Rocket 3.6 02:23:55 25° SW 02:26:03 43° WNW 02:30:12 10° N
MOS 1 Rocket 3.0 02:23:22 17° S 02:26:34 78° WSW 02:30:55 10° NNW
YAOGAN 11 4.1 02:23:45 18° S 02:27:02 72° WSW 02:31:33 10° NNW
Cosmos 1271 Rocket 3.0 02:25:10 10° N 02:28:59 67° ENE 02:32:45 10° SSE
Cosmos 2219 Rocket 4.5 02:27:49 10° WNW 02:30:55 15° NW 02:34:02 10° N
Cosmos 1269 Rocket 4.5 02:27:05 10° NW 02:32:02 42° WSW 02:35:29 18° SSW
CZ-2D R/B 2.5 02:34:47 10° N 02:40:01 53° WNW 02:43:47 18° SW
Lacrosse 5 1.9 02:37:42 19° SW 02:41:22 87° SE 02:46:30 10° NE
Meteor 2-5 Rocket 4.3 02:38:06 19° SW 02:41:59 44° WNW 02:47:24 10° N
Helios 1B rocket 4.4 02:40:45 10° NE 02:44:03 23° E 02:47:20 10° SSE
USA 305 3.7 02:43:04 10° W 02:47:07 47° NNW 02:51:11 10° ENE
Cosmos 1544 Rocket 4.3 02:43:38 10° NNW 02:47:39 35° W 02:50:15 18° SW
Cosmos 2154 Rocket 4.1 02:43:04 10° NNW 02:49:24 68° W 02:55:38 10° S
BREEZE-M DEB (TANK) 4.4 02:47:13 15° SSW 02:49:51 23° SSE 02:52:14 10° E
Cosmos 407 Rocket 4.5 02:46:09 10° NNW 02:51:23 52° ENE 02:56:31 10° SE
SAR-Lupe-2 4.2 02:52:40 10° N 02:56:06 42° WNW 02:58:25 18° SW
Cosmos 1943 4.1 02:51:02 10° S 02:56:23 43° ESE 03:01:43 10° NE
AQUA 4.2 02:52:22 10° N 02:57:00 51° WNW 03:00:42 15° SW
Helios 1A 3.1 02:53:25 12° S 02:57:15 54° W 03:01:26 10° NNW
Cosmos 2237 Rocket 3.8 02:53:40 10° W 02:58:22 26° NW 03:03:06 10° N
Genesis I 4.4 02:54:39 10° NNW 02:58:38 48° NE 03:02:31 10° ESE
Lacrosse 5 rocket 1.2 02:57:25 17° SW 03:00:18 85° SE 03:04:26 10° NE
Cosmos 1140 Rocket 4.0 02:57:08 10° NNW 03:02:23 65° ENE 03:07:36 10° SSE
SL-16 R/B 3.2 02:59:47 13° SSW 03:04:43 35° W 03:10:23 10° NNW
Resurs 1-4 Rocket 3.2 03:04:11 10° N 03:08:46 31° WNW 03:13:01 11° WSW
Cosmos 1726 Rocket 3.8 03:08:18 10° N 03:12:45 74° E 03:17:07 10° SSE
Cosmos 1703 3.5 03:11:07 13° SSW 03:14:31 55° WNW 03:18:24 10° N
Cosmos 1943 Rocket 3.2 03:11:05 10° NW 03:15:45 27° WSW 03:20:22 10° SSW
Cosmos 2297 4.4 03:11:10 10° NW 03:16:16 34° WSW 03:21:20 10° SSW
Cosmos 2263 4.2 03:11:00 10° NNW 03:16:42 84° WSW 03:22:25 10° SSE
NOSS 3-3 (A) 4.3 03:13:34 10° SSW 03:19:04 60° ESE 03:25:26 10° NE
NOSS 3-3 (C) 4.3 03:13:40 10° SSW 03:19:10 59° ESE 03:25:32 10° NE
ADEOS II 2.8 03:19:48 10° N 03:24:41 40° WNW 03:29:32 10° SW
IDEFIX/ARIANE 42P 3.1 03:20:30 10° N 03:25:32 46° WNW 03:30:32 10° SW
ARIANE 5 R/B 3.9 03:22:48 10° NNE 03:27:28 36° E 03:32:03 10° SSE
USA 306 4.2 03:25:27 10° WNW 03:29:22 38° N 03:33:17 10° ENE
CBERS-1 4.1 03:25:23 10° NNE 03:30:32 84° ESE 03:35:39 10° SSW
ERBS 4.3 03:28:45 10° WNW 03:31:09 20° NNW 03:33:34 10° NE
Cosmos 292 Rocket 4.3 03:26:40 10° SW 03:31:14 47° WNW 03:35:52 10° NNE
USA 307 4.1 03:28:55 10° W 03:32:51 38° N 03:36:49 10° ENE
Cosmos 2218 Rocket 4.1 03:28:14 10° N 03:34:30 90° W 03:40:49 10° S
EO 1 Del DPAF 4.5 03:33:18 10° NNW 03:36:10 24° WNW 03:39:02 10° WSW
DNEPR-1 R/B 3.9 03:33:03 10° SSW 03:37:12 61° ESE 03:41:50 10° NE
MOS 1-B Rocket 3.8 03:32:45 10° S 03:38:20 72° WSW 03:44:09 10° NNW
Cosmos 2228 3.9 03:35:25 10° NNW 03:39:16 31° W 03:43:05 10° SSW
Meteor 1-21 Rocket 4.4 03:34:51 10° SSW 03:40:24 59° WNW 03:45:55 10° N
Cosmos 2056 Rocket 4.2 03:35:23 10° S 03:40:25 54° ESE 03:45:33 10° NNE
DEBRIS 3.5 03:30:57 10° WNW 03:40:57 79° SSW 03:44:05 10° ESE
Cosmos 2369 Rocket 2.6 03:36:19 10° NW 03:41:32 41° WSW 03:46:43 10° S
Cosmos 1892 3.6 03:38:00 10° S 03:41:40 50° E 03:45:20 10° NNE
IRS-1D 3.9 03:37:02 10° N 03:42:14 54° WNW 03:47:22 10° SW
Cosmos 2251 Rocket 4.2 03:40:48 10° NW 03:45:33 35° WSW 03:50:19 10° SSW
SL-16 R/B 3.5 03:40:50 10° WSW 03:45:46 30° NW 03:50:43 10° NNE
Cosmos 2058 Rocket 3.0 03:43:23 10° N 03:47:48 83° W 03:52:09 10° S
Gblst 52 Del rocket 4.2 03:43:29 10° WNW 03:49:10 89° NNE 03:54:41 10° ESE
Cosmos 1656 Rocket 4.0 03:45:26 10° NW 03:50:31 42° WSW 03:55:35 10° S
Cosmos 2181 Rocket 4.0 03:45:23 10° SSW 03:51:36 76° W 03:57:48 10° N
USA 215 4.5 03:46:52 10° E 03:52:59 44° NNE 03:59:07 10° WNW
